Location: Peebles
(55.6412°N, 3.1714°W)
Time: 19:45:22
(UTC+00:00)

CENTAUR R/B - Visible Passes

Search period start: 19 January 2022 00:00
Search period end: 29 January 2022 00:00
Orbit: 728 x 1459 km, 63.4° (Epoch: 14 January)

Date Brightness Start Highest point End Pass type
(mag) Time Alt. Az. Time Alt. Az. Time Alt. Az.
19 Jan 3.1 17:12:14 10° SSW 17:17:58 46° ESE 17:24:50 10° NE visible
19 Jan 2.9 19:02:04 10° WSW 19:08:26 70° NNW 19:12:11 32° NE visible
19 Jan 3.6 20:53:34 10° WNW 20:59:22 46° NNW 20:59:22 46° NNW visible
19 Jan 5.0 22:44:55 10° WNW 22:46:33 18° NW 22:46:33 18° NW visible
20 Jan 2.7 18:13:42 10° SW 18:19:59 87° NW 18:25:35 19° NE visible
20 Jan 3.4 20:04:55 10° W 20:11:28 50° NNW 20:12:46 46° NNE visible
20 Jan 4.4 21:56:26 10° WNW 21:59:57 30° NW 21:59:57 30° NW visible
21 Jan 2.7 17:25:34 10° SW 17:31:41 71° SE 17:38:57 11° NE visible
21 Jan 3.2 19:16:18 10° W 19:22:45 56° NNW 19:26:07 33° NE visible
21 Jan 3.7 21:07:54 10° WNW 21:13:19 44° NNW 21:13:19 44° NNW visible
21 Jan 5.0 22:58:59 10° NW 23:00:30 18° NW 23:00:30 18° NW visible
22 Jan 3.0 18:27:44 10° WSW 18:34:08 66° NNW 18:39:29 21° NE visible
22 Jan 3.4 20:19:16 10° WNW 20:25:59 48° N 20:26:40 46° NNE visible
22 Jan 4.5 22:10:35 10° WNW 22:13:50 29° NW 22:13:50 29° NW visible
23 Jan 2.8 17:39:20 10° SW 17:45:38 83° NW 17:52:48 12° NE visible
23 Jan 3.4 19:30:38 10° W 19:37:13 49° N 19:40:00 35° NE visible
23 Jan 3.8 21:22:07 10° WNW 21:27:10 43° NNW 21:27:10 43° NNW visible
23 Jan 5.1 23:12:59 10° NW 23:14:21 17° NW 23:14:21 17° NW visible
24 Jan 3.3 18:41:59 10° W 18:48:28 54° NNW 18:53:19 23° NE visible
24 Jan 3.4 20:33:35 10° WNW 20:40:29 49° N 20:40:29 49° N visible
24 Jan 4.5 22:24:37 10° NW 22:27:41 28° NW 22:27:41 28° NW visible
25 Jan 3.1 17:53:24 10° WSW 17:59:49 64° NNW 18:06:38 14° NE visible
25 Jan 3.5 19:44:58 10° WNW 19:51:44 48° N 19:53:49 39° NE visible
25 Jan 3.9 21:36:14 10° NW 21:41:00 43° NW 21:41:00 43° NW visible
25 Jan 5.2 23:27:00 10° NW 23:28:11 16° NW 23:28:11 16° NW visible
26 Jan 2.9 17:04:58 10° WSW 17:11:17 78° NW 17:19:00 10° NE visible
26 Jan 3.4 18:56:20 10° W 19:02:56 49° N 19:07:08 26° NE visible
26 Jan 3.4 20:47:47 10° WNW 20:54:19 54° N 20:54:19 54° N visible
26 Jan 4.6 22:38:37 10° NW 22:41:30 27° NW 22:41:30 27° NW visible
27 Jan 3.3 18:07:41 10° W 18:14:11 53° NNW 18:20:28 16° ENE visible
27 Jan 3.4 19:59:15 10° WNW 20:06:15 50° N 20:07:38 46° NE visible
27 Jan 4.0 21:50:16 10° NW 21:54:49 42° NW 21:54:49 42° NW visible
27 Jan 5.3 23:41:05 10° NW 23:42:00 14° WNW 23:42:00 14° WNW visible
28 Jan 3.1 17:19:05 10° WSW 17:25:31 61° NNW 17:33:17 10° NE visible
28 Jan 3.5 19:10:40 10° WNW 19:17:28 48° N 19:20:58 31° ENE visible
28 Jan 3.4 21:01:53 10° NW 21:08:09 59° NNW 21:08:09 59° NNW visible
28 Jan 4.8 22:52:38 10° NW 22:55:20 24° WNW 22:55:20 24° WNW visible
